Find Starlink 36803

NORAD ID: 67893 Int'l Des: 2026-035 Owner: SPXS Country: US Constellation: starlink operational
LEOCIRCULARRETROGRADE

Current View

Loading 3D Globe...

About Starlink 36803

Description loading...

Upcoming Passes

Passes for default location (London). Set your location on the main map for personalized predictions.

Altitude History

Loading altitude history...

Two-Line Element Set

1 67893U 26035Q 26145.37133884 .00017973 00000-0 55703-3 0 9994
2 67893 97.2831 78.9544 0001868 82.1330 278.0125 15.33482754 15746
Epoch: May 25, 2026 • Age: 26 hours

Current Status

Altitude 471.8 km
Velocity 7.64 km/s
Sub-Earth Point 46.69°N, 134.46°W
Launch Date Feb 21, 2026
Age 0.2 years
Type internet

Technical Details

Classification Payload
Mass 575.00 kg
Dry Mass 530.00 kg
Total Mass 575.00 kg
Length 0.30 m
Diameter 4.10 m
Span 29.00 m
Shape Box + pan
Manufacturer SPXS
Bus Type Starlink V2MO
Phase Status In Orbit
Owner/State SPXS/US

Most Searched